Regional Weather Roundup
Issued by NWS Little Rock, AR

Home | Current Version | Previous Version | Graphics & Text | Print | Product List | Glossary On
Versions: 1 2 3 4 5 6 7 8 9 10 11 12 13 14 15 16 17 18 19 20 21 22 23 24 25 26 27 28 29 30 31 32 33 34 35 36 37 38 39 40 41 42 43 44 45 46 47 48 49 50
298
ASUS44 KLZK 112105
RWRLZK

WEATHER ROUNDUP FOR ARKANSAS
NATIONAL WEATHER SERVICE LITTLE ROCK AR
300 PM CST MON DEC 11 2017

NOTE: "FAIR" INDICATES FEW OR NO CLOUDS BELOW 12,000 FEET WITH NO
SIGNIFICANT WEATHER AND/OR OBSTRUCTIONS TO VISIBILITY.

ARZ001-003-010-029-112200-
NORTHWEST ARKANSAS

CITY           SKY/WX    TMP DP  RH WIND       PRES   REMARKS
FAYETTEVILLE   SUNNY     66  17  15 NW15      30.01S
FORT SMITH     SUNNY     74  13   9 W22       29.98F
HARRISON       SUNNY     67  13  12 W14G25    29.94S
BENTONVILLE    SUNNY     63  20  19 NW13      30.03S HAZE
ROGERS         SUNNY     62  20  19 W14       30.01S
SILOAM SPGS    SUNNY     64  21  19 NW12      30.03S
HIGHFILL       SUNNY     64  19  17 NW13      30.02R
SPRINGDALE     SUNNY     64  18  16 W14G20    30.02S
$$

ARZ004-005-016-112200-
NORTH CENTRAL ARKANSAS

CITY           SKY/WX    TMP DP  RH WIND       PRES   REMARKS
BATESVILLE     SUNNY     70  20  15 SW15G26   29.89F
FLIPPIN        SUNNY     70  16  12 NW13      29.91S
MTN HOME       SUNNY     68  16  13 NW13G24   29.90F
$$

ARZ040-041-112200-
WEST CENTRAL ARKANSAS

CITY           SKY/WX    TMP DP  RH WIND       PRES   REMARKS
MENA           SUNNY     75  14   9 SW8       30.01F
MOUNT IDA      SUNNY     77  16  10 W6        29.97F
$$

ARZ009-017-025-026-028-112200-
NORTHEAST ARKANSAS

CITY           SKY/WX    TMP DP  RH WIND       PRES   REMARKS
CORNING        FAIR      66  37  34 SW15      29.83F
JONESBORO      SUNNY     67  33  28 SW24G32   29.86F
NEWPORT        SUNNY     69  23  17 SW24      29.88F
WALNUT RIDGE   MOSUNNY   68  25  19 SW20      29.84F
BLYTHEVILLE    SUNNY     64  35  34 SW24G35   29.88F
$$

ARZ022-023-033-042-044-112200-
CENTRAL ARKANSAS

CITY           SKY/WX    TMP DP  RH WIND       PRES   REMARKS
LITTLE ROCK    MOSUNNY   71  24  17 SW14G23   29.97F
N LITTLE ROCK    N/A     73  26  17 W8G16     29.98F
JACKSONVILLE   SUNNY     74  24  15 SW18      29.94F
SEARCY         SUNNY     72  25  17 W12       29.94F
HOT SPRINGS    SUNNY     74  19  12 W15       29.98F
RUSSELLVILLE   SUNNY     72  13  10 W14G21    29.95F
CLINTON        FAIR      70  16  12 SW12G21   29.93F
$$

ARZ036-112200-
EAST ARKANSAS

CITY           SKY/WX    TMP DP  RH WIND       PRES   REMARKS
WEST MEMPHIS   SUNNY     65  33  30 SW12G22   29.94F
$$

ARZ050-053-066-070-073-112200-
SOUTHWEST ARKANSAS

CITY           SKY/WX    TMP DP  RH WIND       PRES   REMARKS
ARKADELPHIA    FAIR      75  23  14 SW12      30.01F
CAMDEN         SUNNY     75  19  12 S13       30.02F
TEXARKANA      SUNNY     74  22  14 SW13      30.03F
EL DORADO      SUNNY     73  27  18 SW10      30.04F
DE QUEEN       SUNNY     74  24  15 W9        30.01F
$$

ARZ056-057-069-112200-
SOUTHEAST ARKANSAS

CITY           SKY/WX    TMP DP  RH WIND       PRES   REMARKS
PINE BLUFF     SUNNY     71  25  17 W14G23    29.99F
STUTTGART      SUNNY     71  26  18 SW17      29.97F
MONTICELLO     SUNNY     72  25  17 SW12      30.01F

$$






USA.gov is the U.S. government's official web portal to all federal, state and local government web resources and services.